Change the Weather History Date:

Monday, December 31, 2012

  Actual Average Record
Temperature  
Mean Temperature 25 °F 24 °F  
Max Temperature 35 °F 33 °F 61 °F (2011)
Min Temperature 15 °F 16 °F -14 °F (1968)
Degree Days  
Heating Degree Days 40 41  
Month to date heating degree days 1034 1182  
Since 1 July heating degree days 2230 2429  
Cooling Degree Days 0 0  
Month to date cooling degree days 0 0  
Year to date cooling degree days 1312 946  
Moisture  
Dew Point 15 °F    
Average Humidity 69    
Maximum Humidity 78    
Minimum Humidity 59    
Precipitation  
Precipitation 0.01 in 0.04 in 0.43 in (1984)
Month to date precipitation 1.55 1.47  
Sea Level Pressure  
Sea Level Pressure 30.17 in    
Wind  
Wind Speed 9 mph (North)    
Max Wind Speed 16 mph    
Max Gust Speed 21 mph    
Visibility 9 miles    
Events Snow    
T = Trace of Precipitation, MM = Missing Value Source: NWS Daily Summary

Daily Weather History Graph

Daily Weather History Graph

Search for Another Location

Airport or City:

Trip Planner

Search our weather history database for the weather conditions in past years. The results will help you decide how hot, cold, wet, or windy it might be!

Date:

Astronomy

Dec. 31, 2012 Rise Set
Actual Time 7:39 AM CST 4:58 PM CST
Civil Twilight 7:08 AM CST 5:29 PM CST
Nautical Twilight 6:34 AM CST 6:03 PM CST
Astronomical Twilight 6:01 AM CST 6:36 PM CST
Moon 8:31 PM CST (12/31) 9:20 AM CST (12/31)
Length of Visible Light 10h 20m
Length of Day
9h 19m
Waning Gibbous, 90% of the Moon is Illuminated
Dec 31
Waning Gibbous
Jan 4
Last Quarter
Jan 11
New
Jan 18
First Quarter
Jan 26
Full

Hourly Weather History & Observations

Time (CST) Temp. Windchill Dew Point Humidity Pressure Visibility Wind Dir Wind Speed Gust Speed Precip Events Conditions
12:53 AM 34.0 °F 26.0 °F 24.1 °F 67% 30.09 in 10.0 mi WSW 10.4 mph - N/A   Clear
1:53 AM 30.9 °F 25.2 °F 24.1 °F 76% 30.11 in 10.0 mi WNW 5.8 mph - N/A   Partly Cloudy
2:53 AM 30.0 °F 25.2 °F 24.1 °F 79% 30.12 in 10.0 mi NW 4.6 mph - N/A   Scattered Clouds
3:53 AM 30.0 °F 22.4 °F 21.9 °F 72% 30.13 in 10.0 mi NW 8.1 mph - N/A   Scattered Clouds
4:53 AM 28.9 °F 21.1 °F 21.0 °F 72% 30.12 in 10.0 mi NNW 8.1 mph - N/A   Overcast
5:53 AM 27.0 °F 19.5 °F 18.0 °F 69% 30.14 in 10.0 mi NNW 6.9 mph - N/A   Overcast
6:53 AM 24.1 °F 15.2 °F 16.0 °F 71% 30.15 in 10.0 mi North 8.1 mph - N/A   Overcast
7:53 AM 23.0 °F 13.1 °F 16.0 °F 74% 30.16 in 10.0 mi NNE 9.2 mph - N/A   Overcast
8:53 AM 21.9 °F 11.0 °F 15.1 °F 75% 30.18 in 10.0 mi NNE 10.4 mph 16.1 mph N/A   Overcast
9:53 AM 19.9 °F 8.6 °F 14.0 °F 78% 30.21 in 10.0 mi North 10.4 mph - N/A   Overcast
10:53 AM 21.9 °F 11.0 °F 14.0 °F 72% 30.22 in 10.0 mi North 10.4 mph - N/A   Overcast
11:53 AM 23.0 °F 12.4 °F 15.1 °F 72% 30.20 in 10.0 mi North 10.4 mph - N/A   Scattered Clouds
12:53 PM 23.0 °F 13.1 °F 14.0 °F 68% 30.18 in 10.0 mi North 9.2 mph - N/A   Overcast
1:53 PM 21.9 °F 8.2 °F 12.0 °F 66% 30.15 in 10.0 mi NNE 16.1 mph - N/A   Overcast
2:53 PM 21.9 °F 11.0 °F 12.0 °F 66% 30.15 in 10.0 mi NNE 10.4 mph - N/A   Overcast
3:53 PM 21.0 °F 8.6 °F 10.9 °F 65% 30.15 in 10.0 mi North 12.7 mph - N/A   Overcast
4:53 PM 21.0 °F 9.3 °F 12.0 °F 68% 30.17 in 10.0 mi NNE 11.5 mph - N/A   Overcast
5:53 PM 19.9 °F 11.1 °F 12.0 °F 71% 30.19 in 10.0 mi North 6.9 mph - N/A   Overcast
6:53 PM 19.0 °F 7.5 °F 12.0 °F 74% 30.21 in 4.0 mi North 10.4 mph - 0.00 in Snow Light Snow
7:02 PM 17.6 °F 6.4 °F 12.2 °F 79% 30.16 in 2.0 mi North 9.2 mph - 0.00 in Snow Light Snow
7:27 PM 17.6 °F 6.4 °F 14.0 °F 86% 30.16 in 4.0 mi North 9.2 mph - 0.01 in Snow Light Snow
7:53 PM 18.0 °F 5.4 °F 12.0 °F 78% 30.22 in 9.0 mi North 11.5 mph - 0.01 in   Overcast
8:53 PM 17.1 °F 5.8 °F 10.0 °F 74% 30.22 in 10.0 mi North 9.2 mph - N/A   Overcast
9:53 PM 17.1 °F 6.6 °F 10.0 °F 74% 30.23 in 10.0 mi North 8.1 mph - N/A   Overcast
10:53 PM 16.0 °F 6.3 °F 9.0 °F 74% 30.25 in 10.0 mi North 6.9 mph - N/A   Overcast
11:53 PM 16.0 °F 4.4 °F 7.0 °F 68% 30.25 in 10.0 mi North 9.2 mph - N/A   Overcast